Regional Weather Roundup
Issued by NWS

Home | Current Version | Previous Version | Graphics & Text | Print | Product List | Glossary On
Versions: 1 2 3 4 5 6 7 8 9 10 11 12 13 14 15 16 17 18 19 20 21 22 23 24 25 26 27 28 29 30 31 32 33 34 35 36 37 38 39 40 41 42 43 44 45 46 47 48 49 50
000
ASUS45 KBOU 281010
RWRCO

WEATHER ROUNDUP FOR COLORADO
NATIONAL WEATHER SERVICE DENVER/BOULDER CO
400 AM MDT WED SEP 28 2016

NOTE: "FAIR" INDICATES FEW OR NO CLOUDS BELOW 12000 FEET WITH NO
SIGNIFICANT WEATHER AND/OR OBSTRUCTIONS TO VISIBILITY.

COZ001>005-013-030-031-281100-
...NORTHWEST COLORADO...

CITY           SKY/WX    TMP DP  RH WIND       PRES   REMARKS
CRAIG          FAIR      37  32  82 CALM      30.31S
HAYDEN         FAIR      45  30  57 E10       30.32R
MEEKER         FAIR      41  36  82 NE6       30.31S
MOUNT WERNER   NOT AVBL
STEAMBOAT SPGS FAIR      40  33  75 CALM      30.34S
WALDEN           N/A     30  23  74 SE7       30.44R WCI  23
$$

COZ006>008-011-281100-
...WEST CENTRAL VALLEYS...

CITY           SKY/WX    TMP DP  RH WIND       PRES   REMARKS
GRAND JUNCTION FAIR      52  37  56 NE3       30.19S
MONTROSE       FAIR      50  36  58 SE9       30.28S
EAGLE          FAIR      43  30  61 E5        30.37R
RIFLE          FAIR      47  39  74 CALM      30.27S
DELTA          NOT AVBL
NUCLA          FAIR      50  36  57 E6        30.29S
$$

COZ017>023-064>068-281100-
...SOUTHWEST COLORADO...

CITY           SKY/WX    TMP DP  RH WIND       PRES   REMARKS
DURANGO        FAIR      44  34  67 N5        30.32R
CORTEZ         FAIR      42  36  79 NE8       30.28R
PAGOSA SPRINGS FAIR      41  31  68 CALM      30.39R
TELLURIDE      FAIR      46  35  64 SE3       30.46S
WOLF CREEK PAS FAIR      43  25  49 MISG      30.64S
$$

COZ009-010-012-014-032>034-037-058>063-281100-
...CENTRAL COLORADO...

CITY           SKY/WX    TMP DP  RH WIND       PRES   REMARKS
ASPEN          FAIR      41  31  67 S6        30.38S
BUENA VISTA    FAIR      47  26  45 NW13      30.42S
COPPER MTN     FAIR      46  23  39 SW10      30.64S
BERTHOUD PASS  FAIR      37  25  60 SE14G22   30.67S
COTTONWOOD PAS FAIR      54  23  30 W9        30.51S
GUNNISON       FAIR      36  28  75 CALM      30.42R
KREMMLING      FAIR      34  27  75 CALM      30.42R
LEADVILLE      FAIR      34  22  61 CALM      30.51S
MONARCH PASS   FAIR      43  25  49 E6        30.73S
SALIDA         FAIR      48  28  46 NW5       30.47S
SUNLIGHT       FAIR      46  30  53 NE5       30.58S
WILKERSON PASS FAIR      45  18  33 E6        30.63S
$$

COZ069>075-281100-
...SAN LUIS VALLEY/SANGRE DE CRISTO MOUNTAINS...

CITY           SKY/WX    TMP DP  RH WIND       PRES   REMARKS
ALAMOSA        FAIR      36  25  64 W6        30.37R
LA VETA PASS   NOT AVBL
SAGUACHE       NOT AVBL
$$

COZ035-036-038>040-281100-
...NORTHERN COLORADO FRONT RANGE...

CITY           SKY/WX    TMP DP  RH WIND       PRES   REMARKS
DENVER INTL AP FAIR      53  29  39 SW10      30.25R
DMNS CITY PARK   N/A     50  34  52 SE8       30.26R
AURORA         CLEAR     52  29  41 SW7       30.27R
FRONT RANGE AP NOT AVBL
ERIE MUNI ARPT FAIR      43  33  67 CALM      30.25R
BOULDER MUN AP FAIR      54  32  43 CALM      30.25R
CENTENNIAL     FAIR      46  30  53 CALM      30.28R
BROOMFIELD     FAIR      63  28  27 N6        30.27R
FORT COLLINS   FAIR      50  34  53 N3        30.24S
LONGMONT       FAIR      48  36  62 SW5       30.26R
$$

COZ041-046-047-076>085-087-088-281100-
...PIKES PEAK/PALMER DIVIDE AND SOUTHERN FOOTHILLS...

CITY           SKY/WX    TMP DP  RH WIND       PRES   REMARKS
COLO. SPRINGS  FAIR      52  27  38 N7        30.29S
A. F. ACADEMY  FAIR      45  26  47 N10       30.31R
SCHRIEVER AFB  NOT AVBL
ELLICOTT       NOT AVBL
FALCON         FAIR      57  23  27 N8        30.33R
FORT CARSON    FAIR      55  29  37 NW9       30.24S
LIMON          FAIR      45  25  45 NW8       30.24R
MONUMENT HILL  FAIR      45  27  49 W8        30.35S
TRINIDAD       FAIR      49  32  52 W9        30.24R
$$

COZ042>045-048>051-090-091-281100-
...NORTHEAST COLORADO...

CITY           SKY/WX    TMP DP  RH WIND       PRES   REMARKS
GREELEY ARPT   FAIR      46  34  61 NW7       30.23S
AKRON          FAIR      51  29  42 W9        30.20R
BURLINGTON     FAIR      46  37  71 W9        30.15S
WRAY           FAIR      43  34  70 MISG      30.15R
STERLING       FAIR      39  34  81 S5        30.17R
HOLYOKE        FAIR      54  37  54 NW8       30.16R
FORT MORGAN    FAIR      50  28  43 NW5       30.21R
$$

COZ086-089-092>099-281100-
...SOUTHEAST COLORADO...

CITY           SKY/WX    TMP DP  RH WIND       PRES   REMARKS
PUEBLO         FAIR      59  31  34 NW12      30.18S
LA JUNTA       FAIR      50  36  58 W8        30.15R
LAMAR          FAIR      42  34  73 SW7       30.11R
SPRINGFIELD    NOT AVBL
$$



USA.gov is the U.S. government's official web portal to all federal, state and local government web resources and services.